"datetime","temp","dp","rain_mm","uv","solar","mb","wind_mph","gust_mph","windchill","rh"
"2020-03-15 00:00:00",10.2,8.6,0.0,0.0,0,1010.0,3,7,"",90
"2020-03-15 00:01:00",10.1,8.5,0.0,0.0,0,1009.9,4,7,"",90
"2020-03-15 00:02:00",10.2,8.5,0.0,0.0,0,1009.9,2,5,"",89
"2020-03-15 00:03:00",10.1,8.5,0.0,0.0,0,1010.0,4,9,"",90
"2020-03-15 00:04:00",10.1,8.4,0.0,0.0,0,1009.8,2,6,"",89
"2020-03-15 00:05:00",10.1,8.4,0.0,0.0,0,1009.8,5,10,"",89
"2020-03-15 00:06:00",10.1,8.4,0.0,0.0,0,1009.9,5,9,"",89
"2020-03-15 00:07:00",10.2,8.5,0.0,0.0,0,1009.8,5,14,"",89
"2020-03-15 00:08:00",10.2,8.5,0.0,0.0,0,1009.8,5,7,"",89
"2020-03-15 00:09:00",10.1,8.4,0.0,0.0,0,1009.8,4,5,"",89
"2020-03-15 00:10:00",10.2,8.5,0.0,0.0,0,1009.8,4,6,"",89
"2020-03-15 00:11:00",10.2,8.5,0.0,0.0,0,1009.8,4,5,"",89
"2020-03-15 00:12:00",10.2,8.5,0.0,0.0,0,1009.8,2,4,"",89
"2020-03-15 00:13:00",10.2,8.5,0.0,0.0,0,1009.8,4,7,"",89
"2020-03-15 00:14:00",10.1,8.4,0.0,0.0,0,1009.7,2,3,"",89
"2020-03-15 00:15:00",10.1,8.4,0.0,0.0,0,1009.7,3,5,"",89
"2020-03-15 00:16:00",10.1,8.4,0.0,0.0,0,1009.7,3,6,"",89
"2020-03-15 00:17:00",10.1,8.4,0.0,0.0,0,1009.7,4,8,"",89
"2020-03-15 00:18:00",10.1,8.4,0.0,0.0,0,1009.7,4,7,"",89
"2020-03-15 00:19:00",10.1,8.4,0.0,0.0,0,1009.7,5,7,"",89
"2020-03-15 00:20:00",10.1,8.4,0.0,0.0,0,1009.7,3,4,"",89
"2020-03-15 00:21:00",10.1,8.4,0.0,0.0,0,1009.7,2,4,"",89
"2020-03-15 00:22:00",10.1,8.4,0.0,0.0,0,1009.7,3,7,"",89
"2020-03-15 00:23:00",10.1,8.4,0.0,0.0,0,1009.6,3,6,"",89
"2020-03-15 00:24:00",10.1,8.4,0.0,0.0,0,1009.7,2,4,"",89
"2020-03-15 00:25:00",10.1,8.4,0.0,0.0,0,1009.6,2,3,"",89
"2020-03-15 00:26:00",10.1,8.4,0.0,0.0,0,1009.6,2,6,"",89
"2020-03-15 00:27:00",10.1,8.4,0.0,0.0,0,1009.6,5,16,"",89
"2020-03-15 00:28:00",10.1,8.4,0.0,0.0,0,1009.6,4,8,"",89
"2020-03-15 00:29:00",10.1,8.4,0.0,0.0,0,1009.6,5,9,"",89
"2020-03-15 00:30:00",10.1,8.4,0.0,0.0,0,1009.5,3,4,"",89
"2020-03-15 00:31:00",10.1,8.4,0.0,0.0,0,1009.5,4,8,"",89
"2020-03-15 00:32:00",10.1,8.4,0.0,0.0,0,1009.5,4,10,"",89
"2020-03-15 00:33:00",10.1,8.4,0.0,0.0,0,1009.5,2,4,"",89
"2020-03-15 00:34:00",10.1,8.4,0.0,0.0,0,1009.4,4,8,"",89
"2020-03-15 00:35:00",10.1,8.4,0.0,0.0,0,1009.5,2,5,"",89
"2020-03-15 00:36:00",10.1,8.4,0.0,0.0,0,1009.5,3,3,"",89
"2020-03-15 00:37:00",10.1,8.4,0.0,0.0,0,1009.4,2,4,"",89
"2020-03-15 00:38:00",10.1,8.4,0.0,0.0,0,1009.5,1,4,"",89
"2020-03-15 00:39:00",10.1,8.4,0.0,0.0,0,1009.5,4,7,"",89
"2020-03-15 00:40:00",10.1,8.4,0.0,0.0,0,1009.4,5,13,"",89
"2020-03-15 00:41:00",10.1,8.4,0.0,0.0,0,1009.4,3,9,"",89
"2020-03-15 00:42:00",10.1,8.4,0.0,0.0,0,1009.4,4,9,"",89
"2020-03-15 00:43:00",10.1,8.4,0.0,0.0,0,1009.4,3,5,"",89
"2020-03-15 00:44:00",10.1,8.4,0.0,0.0,0,1009.4,2,4,"",89
"2020-03-15 00:45:00",10.1,8.4,0.0,0.0,0,1009.4,4,8,"",89
"2020-03-15 00:46:00",10.1,8.4,0.0,0.0,0,1009.4,4,8,"",89
"2020-03-15 00:47:00",10.1,8.4,0.0,0.0,0,1009.3,7,13,"",89
"2020-03-15 00:48:00",10.1,8.4,0.0,0.0,0,1009.4,4,10,"",89
"2020-03-15 00:49:00",10.1,8.4,0.0,0.0,0,1009.4,4,9,"",89
"2020-03-15 00:50:00",10.1,8.4,0.0,0.0,0,1009.3,3,4,"",89
"2020-03-15 00:51:00",10.1,8.4,0.0,0.0,0,1009.3,2,4,"",89
"2020-03-15 00:52:00",10.1,8.4,0.0,0.0,0,1009.4,6,13,"",89
"2020-03-15 00:53:00",10.1,8.4,0.0,0.0,0,1009.4,7,11,"",89
"2020-03-15 00:54:00",10.1,8.4,0.0,0.0,0,1009.3,6,10,"",89
"2020-03-15 00:55:00",10.1,8.4,0.0,0.0,0,1009.3,4,10,"",89
"2020-03-15 00:56:00",10.1,8.4,0.0,0.0,0,1009.3,2,4,"",89
"2020-03-15 00:57:00",10.1,8.4,0.0,0.0,0,1009.3,5,11,"",89
"2020-03-15 00:58:00",10.1,8.4,0.0,0.0,0,1009.3,6,10,"",89
"2020-03-15 00:59:00",10.1,8.4,0.0,0.0,0,1009.3,4,8,"",89
"2020-03-15 01:00:00",10.1,8.4,0.0,0.0,0,1009.3,4,9,"",89
"2020-03-15 01:01:00",10.1,8.4,0.0,0.0,0,1009.3,5,9,"",89
"2020-03-15 01:02:00",10.1,8.4,0.0,0.0,0,1009.3,4,6,"",89
"2020-03-15 01:03:00",10.1,8.4,0.0,0.0,0,1009.2,4,7,"",89
"2020-03-15 01:04:00",10.1,8.4,0.2,0.0,0,1009.3,6,13,"",89
"2020-03-15 01:05:00",10.1,8.4,0.2,0.0,0,1009.3,3,6,9.4,89
"2020-03-15 01:06:00",10.1,8.4,0.2,0.0,0,1009.3,2,3,"",89
"2020-03-15 01:07:00",10.1,8.4,0.2,0.0,0,1009.3,2,2,"",89
"2020-03-15 01:08:00",10.1,8.5,0.2,0.0,0,1009.4,3,8,9.0,90
"2020-03-15 01:09:00",10.0,8.3,0.2,0.0,0,1009.3,4,8,8.2,89
"2020-03-15 01:10:00",10.0,8.3,0.2,0.0,0,1009.3,3,7,8.4,89
"2020-03-15 01:11:00",10.0,8.4,0.2,0.0,0,1009.3,4,7,8.4,90
"2020-03-15 01:12:00",10.0,8.3,0.2,0.0,0,1009.3,4,7,8.4,89
"2020-03-15 01:13:00",10.0,8.3,0.2,0.0,0,1009.3,1,2,"",89
"2020-03-15 01:14:00",10.0,8.3,0.2,0.0,0,1009.3,3,5,9.0,89
"2020-03-15 01:15:00",10.0,8.4,0.2,0.0,0,1009.2,5,14,7.1,90
"2020-03-15 01:16:00",10.0,8.4,0.2,0.0,0,1009.2,3,9,8.0,90
"2020-03-15 01:17:00",9.9,8.3,0.2,0.0,0,1009.2,3,5,9.0,90
"2020-03-15 01:18:00",10.0,8.4,0.2,0.0,0,1009.2,2,4,9.4,90
"2020-03-15 01:19:00",10.0,8.4,0.2,0.0,0,1009.1,1,7,8.4,90
"2020-03-15 01:20:00",10.0,8.4,0.2,0.0,0,1009.1,8,13,7.3,90
"2020-03-15 01:21:00",10.0,8.4,0.2,0.0,0,1009.1,4,8,8.2,90
"2020-03-15 01:22:00",10.0,8.4,0.2,0.0,0,1009.1,6,9,8.0,90
"2020-03-15 01:23:00",10.0,8.4,0.2,0.0,0,1009.1,7,18,6.5,90
"2020-03-15 01:24:00",10.0,8.4,0.2,0.0,0,1009.1,4,7,8.4,90
"2020-03-15 01:25:00",10.0,8.4,0.2,0.0,0,1009.1,3,10,7.8,90
"2020-03-15 01:26:00",10.0,8.4,0.2,0.0,0,1009.1,0,0,"",90
"2020-03-15 01:27:00",9.9,8.3,0.2,0.0,0,1009.0,2,7,8.3,90
"2020-03-15 01:28:00",9.9,8.3,0.2,0.0,0,1009.1,3,5,9.0,90
"2020-03-15 01:29:00",9.9,8.3,0.2,0.0,0,1009.0,1,4,9.2,90
"2020-03-15 01:30:00",10.0,8.4,0.2,0.0,0,1009.0,4,8,8.1,90
"2020-03-15 01:31:00",9.9,8.3,0.2,0.0,0,1009.0,4,7,8.3,90
"2020-03-15 01:32:00",9.9,8.3,0.2,0.0,0,1008.9,3,5,8.9,90
"2020-03-15 01:33:00",9.9,8.3,0.2,0.0,0,1009.0,2,4,9.2,90
"2020-03-15 01:34:00",9.9,8.3,0.2,0.0,0,1008.9,5,8,8.1,90
"2020-03-15 01:35:00",9.9,8.3,0.2,0.0,0,1009.0,5,9,7.9,90
"2020-03-15 01:36:00",9.9,8.3,0.2,0.0,0,1008.9,6,10,7.7,90
"2020-03-15 01:37:00",9.9,8.3,0.2,0.0,0,1008.9,5,9,7.9,90
"2020-03-15 01:38:00",9.9,8.3,0.2,0.0,0,1009.0,3,6,8.6,90
"2020-03-15 01:39:00",9.9,8.3,0.2,0.0,0,1009.0,2,4,9.2,90
"2020-03-15 01:40:00",9.9,8.3,0.2,0.0,0,1008.9,1,5,8.9,90
"2020-03-15 01:41:00",9.9,8.3,0.2,0.0,0,1009.0,2,4,9.2,90
"2020-03-15 01:42:00",9.9,8.3,0.2,0.0,0,1008.9,2,6,8.6,90
"2020-03-15 01:43:00",9.9,8.3,0.2,0.0,0,1008.9,5,9,7.9,90
"2020-03-15 01:44:00",9.9,8.3,0.2,0.0,0,1008.9,4,10,7.7,90
"2020-03-15 01:45:00",9.9,8.3,0.2,0.0,0,1008.8,6,14,7.0,90
"2020-03-15 01:46:00",9.9,8.3,0.2,0.0,0,1008.9,3,5,8.9,90
"2020-03-15 01:47:00",9.9,8.3,0.2,0.0,0,1008.8,5,7,8.3,90
"2020-03-15 01:48:00",9.9,8.3,0.2,0.0,0,1008.8,3,8,8.1,90
"2020-03-15 01:49:00",9.9,8.3,0.2,0.0,0,1008.8,4,10,7.7,90
"2020-03-15 01:50:00",9.9,8.2,0.2,0.0,0,1008.8,5,8,8.1,89
"2020-03-15 01:51:00",9.9,8.2,0.2,0.0,0,1008.8,3,7,8.3,89
"2020-03-15 01:52:00",9.9,8.2,0.2,0.0,0,1008.8,7,18,6.5,89
"2020-03-15 01:53:00",9.9,8.2,0.2,0.0,0,1008.8,7,11,7.5,89
"2020-03-15 01:54:00",9.9,8.2,0.2,0.0,0,1008.7,5,8,8.1,89
"2020-03-15 01:55:00",9.9,8.2,0.2,0.0,0,1008.7,2,13,7.2,89
"2020-03-15 01:56:00",9.9,8.2,0.2,0.0,0,1008.7,6,19,6.4,89
"2020-03-15 01:57:00",9.9,8.2,0.2,0.0,0,1008.8,6,16,6.8,89
"2020-03-15 01:58:00",9.9,8.2,0.2,0.0,0,1008.7,5,9,7.9,89
"2020-03-15 01:59:00",9.9,8.2,0.2,0.0,0,1008.7,3,9,7.9,89
"2020-03-15 02:00:00",9.9,8.2,0.2,0.0,0,1008.6,4,7,8.3,89
"2020-03-15 02:01:00",9.9,8.2,0.2,0.0,0,1008.6,4,8,8.1,89
"2020-03-15 02:02:00",9.9,8.2,0.2,0.0,0,1008.6,3,4,9.2,89
"2020-03-15 02:03:00",9.9,8.2,0.2,0.0,0,1008.6,6,14,7.0,89
"2020-03-15 02:04:00",9.9,8.2,0.2,0.0,0,1008.6,4,8,8.1,89
"2020-03-15 02:05:00",9.9,8.2,0.2,0.0,0,1008.5,5,14,7.0,89
"2020-03-15 02:06:00",9.9,8.2,0.2,0.0,0,1008.5,8,10,7.7,89
"2020-03-15 02:07:00",9.9,8.2,0.2,0.0,0,1008.5,2,5,8.9,89
"2020-03-15 02:08:00",9.9,8.2,0.2,0.0,0,1008.5,5,7,8.3,89
"2020-03-15 02:09:00",9.9,8.2,0.2,0.0,0,1008.5,3,6,8.6,89
"2020-03-15 02:10:00",9.9,8.2,0.2,0.0,0,1008.5,5,12,7.3,89
"2020-03-15 02:11:00",9.9,8.2,0.2,0.0,0,1008.4,7,11,7.5,89
"2020-03-15 02:12:00",9.9,8.2,0.2,0.0,0,1008.4,7,15,6.9,89
"2020-03-15 02:13:00",9.9,8.2,0.2,0.0,0,1008.5,2,7,8.3,89
"2020-03-15 02:14:00",9.9,8.2,0.2,0.0,0,1008.5,6,14,7.0,89
"2020-03-15 02:15:00",9.9,8.2,0.2,0.0,0,1008.4,5,13,7.2,89
"2020-03-15 02:16:00",9.9,8.2,0.2,0.0,0,1008.4,5,10,7.7,89
"2020-03-15 02:17:00",9.9,8.2,0.2,0.0,0,1008.5,6,9,7.9,89
"2020-03-15 02:18:00",9.9,8.2,0.2,0.0,0,1008.4,4,7,8.3,89
"2020-03-15 02:19:00",9.8,8.1,0.2,0.0,0,1008.4,3,5,8.9,89
"2020-03-15 02:20:00",9.9,8.2,0.2,0.0,0,1008.4,3,4,9.1,89
"2020-03-15 02:21:00",9.9,8.2,0.2,0.0,0,1008.4,4,12,7.3,89
"2020-03-15 02:22:00",9.9,8.2,0.2,0.0,0,1008.3,6,11,7.5,89
"2020-03-15 02:23:00",9.8,8.1,0.2,0.0,0,1008.3,7,14,6.9,89
"2020-03-15 02:24:00",9.8,8.1,0.2,0.0,0,1008.4,6,11,7.4,89
"2020-03-15 02:25:00",9.8,8.1,0.2,0.0,0,1008.5,7,15,6.8,89
"2020-03-15 02:26:00",9.8,8.1,0.2,0.0,0,1008.4,5,9,7.7,89
"2020-03-15 02:27:00",9.8,8.1,0.2,0.0,0,1008.3,4,10,7.5,89
"2020-03-15 02:28:00",9.8,8.1,0.2,0.0,0,1008.2,6,14,6.9,89
"2020-03-15 02:29:00",9.8,8.1,0.2,0.0,0,1008.3,4,6,8.5,89
"2020-03-15 02:30:00",9.8,8.1,0.2,0.0,0,1008.4,6,11,7.4,89
"2020-03-15 02:31:00",9.8,8.2,0.2,0.0,0,1008.2,4,10,7.5,90
"2020-03-15 02:32:00",9.8,8.2,0.2,0.0,0,1008.3,6,10,7.5,90
"2020-03-15 02:33:00",9.7,8.1,0.2,0.0,0,1008.3,6,14,6.8,90
"2020-03-15 02:34:00",9.7,8.1,0.2,0.0,0,1008.3,4,8,7.8,90
"2020-03-15 02:35:00",9.7,8.1,0.2,0.0,0,1008.2,3,5,8.6,90
"2020-03-15 02:36:00",9.7,8.1,0.2,0.0,0,1008.1,4,7,8.1,90
"2020-03-15 02:37:00",9.7,8.1,0.2,0.0,0,1008.2,4,7,8.1,90
"2020-03-15 02:38:00",9.7,8.1,0.2,0.0,0,1008.1,2,3,"",90
"2020-03-15 02:39:00",9.6,8.0,0.2,0.0,0,1008.2,5,9,7.5,90
"2020-03-15 02:40:00",9.6,8.0,0.2,0.0,0,1008.2,2,5,8.5,90
"2020-03-15 02:41:00",9.6,8.0,0.2,0.0,0,1008.1,2,4,8.9,90
"2020-03-15 02:42:00",9.6,8.0,0.2,0.0,0,1008.2,6,11,7.1,90
"2020-03-15 02:43:00",9.6,8.0,0.2,0.0,0,1008.1,5,7,7.9,90
"2020-03-15 02:44:00",9.6,8.0,0.2,0.0,0,1008.1,5,11,7.1,90
"2020-03-15 02:45:00",9.6,8.0,0.2,0.0,0,1008.2,2,6,8.2,90
"2020-03-15 02:46:00",9.6,8.0,0.2,0.0,0,1008.1,2,5,8.5,90
"2020-03-15 02:47:00",9.6,8.0,0.2,0.0,0,1008.0,1,3,"",90
"2020-03-15 02:48:00",9.6,8.0,0.2,0.0,0,1008.0,5,10,7.3,90
"2020-03-15 02:49:00",9.6,8.0,0.2,0.0,0,1008.1,6,8,7.7,90
"2020-03-15 02:50:00",9.6,8.0,0.2,0.0,0,1008.0,6,11,7.1,90
"2020-03-15 02:51:00",9.6,8.0,0.2,0.0,0,1008.1,5,12,6.9,90
"2020-03-15 02:52:00",9.6,8.0,0.2,0.0,0,1008.1,1,2,"",90
"2020-03-15 02:53:00",9.6,8.0,0.2,0.0,0,1008.0,2,6,8.2,90
"2020-03-15 02:54:00",9.6,8.0,0.2,0.0,0,1008.1,5,11,7.1,90
"2020-03-15 02:55:00",9.6,8.0,0.2,0.0,0,1008.0,3,6,8.2,90
"2020-03-15 02:56:00",9.6,8.0,0.2,0.0,0,1008.1,2,3,"",90
"2020-03-15 02:57:00",9.6,8.0,0.2,0.0,0,1008.1,2,5,8.5,90
"2020-03-15 02:58:00",9.6,8.0,0.2,0.0,0,1008.0,1,2,"",90
"2020-03-15 02:59:00",9.6,8.0,0.2,0.0,0,1008.0,2,7,7.9,90
"2020-03-15 03:00:00",9.6,8.0,0.2,0.0,0,1007.9,3,8,7.7,90
"2020-03-15 03:01:00",9.6,8.0,0.2,0.0,0,1008.0,4,6,8.2,90
"2020-03-15 03:02:00",9.6,8.0,0.2,0.0,0,1008.0,4,6,8.2,90
"2020-03-15 03:03:00",9.6,8.0,0.2,0.0,0,1008.0,3,8,7.7,90
"2020-03-15 03:04:00",9.5,7.9,0.2,0.0,0,1008.0,5,9,7.5,90
"2020-03-15 03:05:00",9.6,8.0,0.2,0.0,0,1007.9,2,5,8.4,90
"2020-03-15 03:06:00",9.5,7.9,0.2,0.0,0,1007.9,3,5,8.4,90
"2020-03-15 03:07:00",9.5,7.9,0.2,0.0,0,1007.9,3,8,7.7,90
"2020-03-15 03:08:00",9.6,8.0,0.2,0.0,0,1007.9,6,11,7.0,90
"2020-03-15 03:09:00",9.6,8.0,0.2,0.0,0,1008.0,4,6,8.1,90
"2020-03-15 03:10:00",9.6,8.0,0.2,0.0,0,1007.9,3,5,8.5,90
"2020-03-15 03:11:00",9.6,8.0,0.2,0.0,0,1007.9,3,5,8.4,90
"2020-03-15 03:12:00",9.6,8.0,0.2,0.0,0,1007.8,5,10,7.3,90
"2020-03-15 03:13:00",9.6,8.0,0.2,0.0,0,1007.9,5,12,6.9,90
"2020-03-15 03:14:00",9.6,8.0,0.2,0.0,0,1007.8,2,5,8.5,90
"2020-03-15 03:15:00",9.6,8.0,0.2,0.0,0,1007.9,3,7,7.9,90
"2020-03-15 03:16:00",9.6,8.0,0.2,0.0,0,1007.7,1,4,8.9,90
"2020-03-15 03:17:00",9.6,8.0,0.2,0.0,0,1007.7,6,11,7.1,90
"2020-03-15 03:18:00",9.6,8.0,0.2,0.0,0,1007.7,2,4,8.9,90
"2020-03-15 03:19:00",9.6,8.0,0.2,0.0,0,1007.7,5,10,7.3,90
"2020-03-15 03:20:00",9.5,7.9,0.2,0.0,0,1007.7,5,10,7.3,90
"2020-03-15 03:21:00",9.6,8.0,0.2,0.0,0,1007.7,6,9,7.5,90
"2020-03-15 03:22:00",9.6,7.9,0.2,0.0,0,1007.7,5,6,8.2,89
"2020-03-15 03:23:00",9.6,7.9,0.2,0.0,0,1007.7,4,6,8.2,89
"2020-03-15 03:24:00",9.6,7.9,0.2,0.0,0,1007.7,7,11,7.1,89
"2020-03-15 03:25:00",9.6,7.9,0.2,0.0,0,1007.6,4,9,7.5,89
"2020-03-15 03:26:00",9.6,7.9,0.2,0.0,0,1007.6,4,6,8.2,89
"2020-03-15 03:27:00",9.6,7.9,0.2,0.0,0,1007.6,8,15,6.5,89
"2020-03-15 03:28:00",9.6,7.9,0.2,0.0,0,1007.6,9,16,6.4,89
"2020-03-15 03:29:00",9.6,7.9,0.2,0.0,0,1007.6,6,16,6.4,89
"2020-03-15 03:30:00",9.6,7.9,0.2,0.0,0,1007.6,3,5,8.5,89
"2020-03-15 03:31:00",9.6,7.9,0.2,0.0,0,1007.6,5,7,7.9,89
"2020-03-15 03:32:00",9.6,7.9,0.2,0.0,0,1007.6,2,5,8.5,89
"2020-03-15 03:33:00",9.6,7.9,0.2,0.0,0,1007.7,4,8,7.7,89
"2020-03-15 03:34:00",9.6,7.9,0.2,0.0,0,1007.6,5,10,7.3,89
"2020-03-15 03:35:00",9.6,7.9,0.2,0.0,0,1007.7,2,4,8.9,89
"2020-03-15 03:36:00",9.6,7.9,0.2,0.0,0,1007.7,2,4,8.9,89
"2020-03-15 03:37:00",9.6,7.9,0.2,0.0,0,1007.6,4,7,7.9,89
"2020-03-15 03:38:00",9.6,7.9,0.2,0.0,0,1007.7,3,6,8.2,89
"2020-03-15 03:39:00",9.6,8.0,0.2,0.0,0,1007.6,2,3,"",90
"2020-03-15 03:40:00",9.6,8.0,0.2,0.0,0,1007.6,2,3,"",90
"2020-03-15 03:41:00",9.6,8.0,0.2,0.0,0,1007.6,3,4,8.9,90
"2020-03-15 03:42:00",9.6,8.0,0.2,0.0,0,1007.6,1,2,"",90
"2020-03-15 03:43:00",9.5,7.9,0.2,0.0,0,1007.7,5,10,7.3,90
"2020-03-15 03:44:00",9.5,7.9,0.2,0.0,0,1007.5,3,8,7.6,90
"2020-03-15 03:45:00",9.5,7.9,0.2,0.0,0,1007.6,4,8,7.7,90
"2020-03-15 03:46:00",9.5,7.9,0.2,0.0,0,1007.6,5,8,7.6,90
"2020-03-15 03:48:00",9.5,7.9,0.2,0.0,0,1007.5,4,9,7.4,90
"2020-03-15 03:49:00",9.4,7.8,0.2,0.0,0,1007.5,3,5,8.3,90
"2020-03-15 03:50:00",9.4,7.8,0.2,0.0,0,1007.5,5,9,7.2,90
"2020-03-15 03:51:00",9.4,7.8,0.2,0.0,0,1007.5,5,9,7.2,90
"2020-03-15 03:52:00",9.4,7.8,0.2,0.0,0,1007.5,4,7,7.7,90
"2020-03-15 03:53:00",9.4,7.8,0.2,0.0,0,1007.4,6,8,7.5,90
"2020-03-15 03:54:00",9.4,7.8,0.2,0.0,0,1007.5,3,5,8.3,90
"2020-03-15 03:55:00",9.4,7.8,0.2,0.0,0,1007.5,5,10,7.0,90
"2020-03-15 03:56:00",9.4,7.8,0.2,0.0,0,1007.5,4,7,7.7,90
"2020-03-15 03:57:00",9.4,7.8,0.2,0.0,0,1007.4,5,8,7.5,90
"2020-03-15 03:58:00",9.4,7.8,0.2,0.0,0,1007.4,2,3,"",90
"2020-03-15 03:59:00",9.4,7.8,0.2,0.0,0,1007.3,1,3,"",90
"2020-03-15 04:00:00",9.4,7.8,0.2,0.0,0,1007.4,3,7,7.7,90
"2020-03-15 04:01:00",9.4,7.8,0.2,0.0,0,1007.4,5,7,7.7,90
"2020-03-15 04:02:00",9.4,7.8,0.2,0.0,0,1007.3,4,9,7.2,90
"2020-03-15 04:03:00",9.4,8.0,0.2,0.0,0,1007.3,3,5,8.3,91
"2020-03-15 04:04:00",9.4,8.0,0.2,0.0,0,1007.2,3,4,8.6,91
"2020-03-15 04:05:00",9.3,7.9,0.2,0.0,0,1007.3,2,4,8.7,91
"2020-03-15 04:06:00",9.3,7.9,0.2,0.0,0,1007.2,2,4,8.6,91
"2020-03-15 04:07:00",9.3,7.9,0.2,0.0,0,1007.2,4,8,7.3,91
"2020-03-15 04:08:00",9.3,7.9,0.2,0.0,0,1007.3,3,6,7.9,91
"2020-03-15 04:09:00",9.3,7.9,0.2,0.0,0,1007.2,4,7,7.6,91
"2020-03-15 04:10:00",9.3,7.9,0.2,0.0,0,1007.1,6,14,6.3,91
"2020-03-15 04:11:00",9.3,7.9,0.2,0.0,0,1007.2,4,8,7.3,91
"2020-03-15 04:12:00",9.3,7.9,0.2,0.0,0,1007.2,3,7,7.6,91
"2020-03-15 04:13:00",9.3,7.9,0.2,0.0,0,1007.2,3,5,8.2,91
"2020-03-15 04:14:00",9.4,8.0,0.2,0.0,0,1007.2,1,4,8.6,91
"2020-03-15 04:15:00",9.3,7.9,0.2,0.0,0,1007.3,3,4,8.6,91
"2020-03-15 04:16:00",9.4,8.0,0.2,0.0,0,1007.3,3,6,7.9,91
"2020-03-15 04:17:00",9.3,7.9,0.2,0.0,0,1007.2,2,5,8.2,91
"2020-03-15 04:18:00",9.4,8.0,0.2,0.0,0,1007.2,5,12,6.7,91
"2020-03-15 04:19:00",9.3,7.9,0.2,0.0,0,1007.2,4,6,8.0,91
"2020-03-15 04:20:00",9.4,8.0,0.2,0.0,0,1007.2,4,5,8.3,91
"2020-03-15 04:21:00",9.4,8.0,0.2,0.0,0,1007.2,3,9,7.2,91
"2020-03-15 04:22:00",9.4,8.0,0.2,0.0,0,1007.1,6,10,7.0,91
"2020-03-15 04:23:00",9.4,8.0,0.2,0.0,0,1007.1,4,8,7.5,91
"2020-03-15 04:24:00",9.4,8.0,0.2,0.0,0,1007.2,3,5,8.3,91
"2020-03-15 04:25:00",9.4,8.0,0.2,0.0,0,1007.1,6,12,6.7,91
"2020-03-15 04:26:00",9.4,7.8,0.2,0.0,0,1007.1,6,9,7.2,90
"2020-03-15 04:27:00",9.4,7.8,0.2,0.0,0,1007.2,3,6,8.0,90
"2020-03-15 04:28:00",9.4,7.8,0.2,0.0,0,1007.1,4,9,7.2,90
"2020-03-15 04:29:00",9.4,7.8,0.2,0.0,0,1007.1,4,9,7.2,90
"2020-03-15 04:30:00",9.4,7.8,0.2,0.0,0,1007.1,3,5,8.3,90
"2020-03-15 04:31:00",9.4,7.8,0.2,0.0,0,1007.1,4,7,7.7,90
"2020-03-15 04:32:00",9.4,7.8,0.2,0.0,0,1007.1,4,7,7.7,90
"2020-03-15 04:33:00",9.4,7.8,0.2,0.0,0,1007.1,6,10,7.0,90
"2020-03-15 04:34:00",9.4,7.8,0.2,0.0,0,1007.0,4,9,7.2,90
"2020-03-15 04:35:00",9.4,7.8,0.2,0.0,0,1007.0,6,14,6.4,90
"2020-03-15 04:36:00",9.4,7.8,0.2,0.0,0,1007.0,2,3,"",90
"2020-03-15 04:37:00",9.4,7.8,0.2,0.0,0,1007.0,6,10,7.0,90
"2020-03-15 04:38:00",9.4,7.8,0.2,0.0,0,1006.9,6,11,6.9,90
"2020-03-15 04:39:00",9.4,7.8,0.2,0.0,0,1006.9,3,7,7.7,90
"2020-03-15 04:40:00",9.4,7.8,0.2,0.0,0,1006.9,3,5,8.3,90
"2020-03-15 04:41:00",9.4,7.8,0.2,0.0,0,1007.0,2,3,"",90
"2020-03-15 04:42:00",9.4,7.8,0.2,0.0,0,1007.0,6,12,6.7,90
"2020-03-15 04:43:00",9.4,7.8,0.2,0.0,0,1006.9,3,12,6.7,90
"2020-03-15 04:44:00",9.4,7.8,0.2,0.0,0,1007.0,3,6,8.0,90
"2020-03-15 04:45:00",9.4,7.8,0.2,0.0,0,1007.0,5,12,6.7,90
"2020-03-15 04:46:00",9.4,7.8,0.2,0.0,0,1007.0,3,6,8.0,90
"2020-03-15 04:47:00",9.4,7.8,0.2,0.0,0,1007.0,3,5,8.3,90
"2020-03-15 04:48:00",9.4,7.8,0.2,0.0,0,1007.0,9,18,5.9,90
"2020-03-15 04:49:00",9.4,7.8,0.2,0.0,0,1007.0,5,10,7.0,90
"2020-03-15 04:50:00",9.4,7.8,0.2,0.0,0,1007.1,4,9,7.2,90
"2020-03-15 04:51:00",9.4,7.8,0.2,0.0,0,1006.9,3,6,8.0,90
"2020-03-15 04:52:00",9.4,7.8,0.2,0.0,0,1007.0,2,4,8.7,90
"2020-03-15 04:53:00",9.4,7.8,0.2,0.0,0,1007.0,2,5,8.3,90
"2020-03-15 04:54:00",9.4,7.8,0.2,0.0,0,1006.9,4,6,8.0,90
"2020-03-15 04:55:00",9.4,7.8,0.2,0.0,0,1007.0,4,8,7.5,90
"2020-03-15 04:56:00",9.4,7.8,0.2,0.0,0,1006.9,6,12,6.7,90
"2020-03-15 04:57:00",9.4,7.8,0.2,0.0,0,1007.0,3,8,7.5,90
"2020-03-15 04:58:00",9.4,7.8,0.2,0.0,0,1006.9,6,15,6.2,90
"2020-03-15 04:59:00",9.4,7.8,0.2,0.0,0,1006.9,3,8,7.5,90
"2020-03-15 05:00:00",9.4,7.8,0.2,0.0,0,1007.0,8,15,6.2,90
"2020-03-15 05:01:00",9.4,7.8,0.2,0.0,0,1006.9,2,4,8.7,90
"2020-03-15 05:02:00",9.4,7.8,0.2,0.0,0,1006.9,3,5,8.3,90
"2020-03-15 05:03:00",9.4,7.8,0.2,0.0,0,1006.9,4,7,7.7,90
"2020-03-15 05:04:00",9.4,7.8,0.2,0.0,0,1006.9,5,9,7.2,90
"2020-03-15 05:05:00",9.4,7.8,0.2,0.0,0,1006.9,6,11,6.9,90
"2020-03-15 05:06:00",9.4,7.8,0.2,0.0,0,1006.9,4,6,8.0,90
"2020-03-15 05:07:00",9.4,7.8,0.2,0.0,0,1007.0,2,5,8.3,90
"2020-03-15 05:08:00",9.4,7.8,0.2,0.0,0,1006.9,3,7,7.7,90
"2020-03-15 05:09:00",9.4,7.8,0.2,0.0,0,1006.9,5,6,7.9,90
"2020-03-15 05:10:00",9.4,7.8,0.2,0.0,0,1007.0,6,12,6.7,90
"2020-03-15 05:11:00",9.4,7.8,0.2,0.0,0,1006.9,4,6,8.0,90
"2020-03-15 05:12:00",9.4,7.8,0.2,0.0,0,1006.9,1,3,"",90
"2020-03-15 05:13:00",9.4,7.8,0.2,0.0,0,1006.9,3,6,8.0,90
"2020-03-15 05:14:00",9.4,7.8,0.2,0.0,0,1006.8,4,12,6.7,90
"2020-03-15 05:15:00",9.4,7.8,0.2,0.0,0,1006.8,4,7,7.7,90
"2020-03-15 05:16:00",9.4,7.8,0.2,0.0,0,1006.8,2,3,"",90
"2020-03-15 05:17:00",9.4,7.8,0.2,0.0,0,1006.8,2,5,8.3,90
"2020-03-15 05:18:00",9.4,7.8,0.2,0.0,0,1006.9,5,8,7.5,90
"2020-03-15 05:19:00",9.4,7.8,0.2,0.0,0,1006.8,3,5,8.3,90
"2020-03-15 05:20:00",9.4,7.8,0.2,0.0,0,1006.8,3,4,8.6,90
"2020-03-15 05:21:00",9.4,7.8,0.2,0.0,0,1006.8,3,6,8.0,90
"2020-03-15 05:22:00",9.4,7.8,0.2,0.0,0,1006.8,3,5,8.3,90
"2020-03-15 05:23:00",9.4,7.8,0.2,0.0,0,1006.8,3,7,7.7,90
"2020-03-15 05:24:00",9.3,7.7,0.2,0.0,0,1006.8,4,9,7.1,90
"2020-03-15 05:25:00",9.4,7.8,0.2,0.0,0,1006.7,4,11,6.9,90
"2020-03-15 05:26:00",9.4,7.8,0.2,0.0,0,1006.8,8,12,6.7,90
"2020-03-15 05:27:00",9.4,7.8,0.2,0.0,0,1006.7,3,6,8.0,90
"2020-03-15 05:28:00",9.4,7.8,0.2,0.0,0,1006.8,7,11,6.9,90
"2020-03-15 05:29:00",9.4,7.8,0.2,0.0,0,1006.7,3,5,8.3,90
"2020-03-15 05:30:00",9.4,7.8,0.2,0.0,0,1006.7,3,7,7.7,90
"2020-03-15 05:31:00",9.4,7.8,0.2,0.0,0,1006.7,1,2,"",90
"2020-03-15 05:32:00",9.4,7.8,0.2,0.0,0,1006.6,4,9,7.2,90
"2020-03-15 05:33:00",9.4,7.8,0.2,0.0,0,1006.6,4,7,7.7,90
"2020-03-15 05:34:00",9.4,7.8,0.2,0.0,0,1006.6,6,13,6.5,90
"2020-03-15 05:35:00",9.4,7.8,0.2,0.0,0,1006.6,5,9,7.2,90
"2020-03-15 05:36:00",9.4,7.8,0.2,0.0,0,1006.6,7,16,6.1,90
"2020-03-15 05:37:00",9.4,7.8,0.2,0.0,0,1006.6,5,11,6.9,90
"2020-03-15 05:38:00",9.4,7.8,0.2,0.0,0,1006.6,3,5,8.3,90
"2020-03-15 05:39:00",9.4,7.8,0.2,0.0,0,1006.6,1,3,"",90
"2020-03-15 05:40:00",9.4,7.8,0.2,0.0,0,1006.7,2,4,8.7,90
"2020-03-15 05:41:00",9.4,7.8,0.2,0.0,0,1006.6,3,7,7.7,90
"2020-03-15 05:42:00",9.4,7.8,0.2,0.0,0,1006.6,4,9,7.2,90
"2020-03-15 05:43:00",9.4,7.8,0.2,0.0,0,1006.6,2,6,8.0,90
"2020-03-15 05:44:00",9.4,7.8,0.2,0.0,0,1006.6,5,8,7.5,90
"2020-03-15 05:45:00",9.4,7.8,0.2,0.0,0,1006.6,5,10,7.0,90
"2020-03-15 05:46:00",9.3,7.7,0.2,0.0,0,1006.6,3,5,8.3,90
"2020-03-15 05:47:00",9.4,7.8,0.2,0.0,0,1006.5,3,5,8.3,90
"2020-03-15 05:48:00",9.3,7.7,0.2,0.0,0,1006.5,3,6,7.9,90
"2020-03-15 05:49:00",9.3,7.7,0.2,0.0,0,1006.5,2,3,"",90
"2020-03-15 05:50:00",9.3,7.7,0.2,0.0,0,1006.5,6,11,6.7,90
"2020-03-15 05:51:00",9.3,7.9,0.2,0.0,0,1006.5,6,9,7.1,91
"2020-03-15 05:52:00",9.3,7.9,0.2,0.0,0,1006.5,5,9,7.1,91
"2020-03-15 05:53:00",9.3,7.9,0.2,0.0,0,1006.5,5,8,7.3,91
"2020-03-15 05:54:00",9.3,7.9,0.2,0.0,0,1006.5,2,5,8.2,91
"2020-03-15 05:55:00",9.3,7.9,0.2,0.0,0,1006.5,4,7,7.6,91
"2020-03-15 05:56:00",9.3,7.9,0.2,0.0,0,1006.5,4,7,7.6,91
"2020-03-15 05:57:00",9.3,7.9,0.2,0.0,0,1006.5,4,6,7.9,91
"2020-03-15 05:58:00",9.3,7.9,0.2,0.0,0,1006.5,4,9,7.1,91
"2020-03-15 05:59:00",9.3,7.9,0.2,0.0,0,1006.5,4,6,7.9,91
"2020-03-15 06:00:00",9.3,7.9,0.2,0.0,0,1006.5,2,4,8.6,91
"2020-03-15 06:01:00",9.3,7.9,0.2,0.0,0,1006.5,1,2,"",91
"2020-03-15 06:02:00",9.2,8.0,0.2,0.0,0,1006.5,3,9,7.1,92
"2020-03-15 06:03:00",9.2,8.0,0.2,0.0,0,1006.5,2,6,7.7,92
"2020-03-15 06:04:00",9.2,8.0,0.2,0.0,0,1006.4,1,3,"",92
"2020-03-15 06:05:00",9.2,8.0,0.2,0.0,0,1006.5,2,4,8.4,92
"2020-03-15 06:06:00",9.2,8.0,0.2,0.0,0,1006.5,3,7,7.5,92
"2020-03-15 06:07:00",9.2,8.0,0.2,0.0,0,1006.5,5,8,7.2,92
"2020-03-15 06:08:00",9.2,8.0,0.2,0.0,0,1006.4,3,6,7.7,92
"2020-03-15 06:09:00",9.2,8.0,0.2,0.0,0,1006.4,2,4,8.3,92
"2020-03-15 06:10:00",9.1,7.9,0.2,0.0,0,1006.4,3,5,7.9,92
"2020-03-15 06:11:00",9.1,7.9,0.2,0.0,0,1006.4,4,7,7.3,92
"2020-03-15 06:12:00",9.1,7.9,0.2,0.0,0,1006.4,3,6,7.6,92
"2020-03-15 06:13:00",9.1,7.9,0.2,0.0,0,1006.4,5,7,7.3,92
"2020-03-15 06:14:00",9.1,8.0,0.2,0.0,0,1006.3,3,7,7.3,93
"2020-03-15 06:15:00",9.1,8.0,0.2,0.0,0,1006.3,2,6,7.6,93
"2020-03-15 06:16:00",9.1,8.0,0.2,0.0,0,1006.3,1,4,8.3,93
"2020-03-15 06:17:00",9.1,8.0,0.2,0.0,0,1006.3,2,4,8.3,93
"2020-03-15 06:18:00",9.1,8.0,0.2,0.0,0,1006.3,5,12,6.3,93
"2020-03-15 06:19:00",9.1,8.0,0.2,0.0,0,1006.4,2,5,7.9,93
"2020-03-15 06:20:00",9.1,8.0,0.2,0.0,0,1006.3,2,5,7.9,93
"2020-03-15 06:21:00",9.1,8.0,0.2,0.0,0,1006.3,3,7,7.2,93
"2020-03-15 06:22:00",9.1,8.0,0.2,0.0,0,1006.3,5,13,6.0,93
"2020-03-15 06:23:00",9.0,7.9,0.2,0.0,0,1006.3,6,9,6.7,93
"2020-03-15 06:24:00",9.0,7.9,0.2,0.0,0,1006.2,2,4,8.2,93
"2020-03-15 06:25:00",9.0,7.9,0.2,0.0,0,1006.2,3,5,7.8,93
"2020-03-15 06:26:00",9.0,7.9,0.2,0.0,0,1006.2,2,3,"",93
"2020-03-15 06:27:00",9.0,7.9,0.2,0.0,0,1006.2,2,4,8.2,93
"2020-03-15 06:28:00",9.0,7.9,0.2,0.0,0,1006.2,2,3,"",93
"2020-03-15 06:29:00",9.0,7.9,0.2,0.0,0,1006.3,1,5,7.8,93
"2020-03-15 06:30:00",9.0,7.9,0.2,0.0,0,1006.2,3,5,7.7,93
"2020-03-15 06:31:00",9.0,7.9,0.2,0.0,0,1006.3,5,7,7.1,93
"2020-03-15 06:32:00",9.0,7.9,0.2,0.0,0,1006.3,6,10,6.5,93
"2020-03-15 06:33:00",9.0,7.9,0.2,0.0,0,1006.2,4,6,7.5,93
"2020-03-15 06:34:00",8.9,7.8,0.2,0.0,0,1006.2,6,12,6.1,93
"2020-03-15 06:35:00",8.9,7.8,0.2,0.0,0,1006.2,6,12,6.1,93
"2020-03-15 06:36:00",9.0,7.9,0.2,0.0,0,1006.2,3,4,8.1,93
"2020-03-15 06:37:00",8.9,7.8,0.2,0.0,0,1006.2,3,6,7.5,93
"2020-03-15 06:38:00",9.0,7.9,0.2,0.0,0,1006.2,3,9,6.7,93
"2020-03-15 06:39:00",9.0,7.9,0.2,0.0,0,1006.2,5,6,7.4,93
"2020-03-15 06:40:00",9.0,7.9,0.2,0.0,0,1006.2,6,10,6.4,93
"2020-03-15 06:41:00",9.0,7.9,0.2,0.0,0,1006.2,3,5,7.8,93
"2020-03-15 06:42:00",9.0,7.9,0.2,0.0,0,1006.2,1,5,7.8,93
"2020-03-15 06:43:00",9.0,7.9,0.2,0.0,0,1006.1,2,3,"",93
"2020-03-15 06:44:00",9.0,7.9,0.2,0.0,0,1006.2,0,1,"",93
"2020-03-15 06:45:00",9.0,7.9,0.2,0.0,0,1006.2,5,10,6.5,93
"2020-03-15 06:46:00",9.0,7.9,0.2,0.0,0,1006.2,1,3,"",93
"2020-03-15 06:47:00",9.0,7.9,0.2,0.0,0,1006.2,2,4,8.2,93
"2020-03-15 06:48:00",9.0,7.9,0.2,0.0,0,1006.2,3,6,7.5,93
"2020-03-15 06:49:00",9.0,7.9,0.2,0.0,0,1006.1,1,3,"",93
"2020-03-15 06:50:00",9.0,7.9,0.2,0.0,0,1006.1,1,2,"",93